Simultaneous Nadir Overpasses (SNOs) Predictions

Prediction of SNOs between GOES-17 and METOP-B Satellite Orbit:

Table of predicted SNOs for the next 14.0 days since TLE Epoch: 7/3/2021
Index Date Time (GOES-17) GOES-17 Lat,Lon METOP-B Lat,Lon Distance(km) Time Diff (sec)
1 07/03/2021 06:38:26 -0.02,-137.17 -0.02,-137.30 14.17 80
2 07/05/2021 18:39:19 0.02,-137.16 -0.04,-136.86 34.22 80
3 07/07/2021 06:55:39 -0.02,-137.14 -1.01,-141.45 491.97 80
4 07/08/2021 06:37:40 -0.02,-137.12 0.14,-136.46 75.79 80
5 07/09/2021 18:53:53 0.02,-137.11 0.89,-141.02 445.85 80
6 07/10/2021 18:35:53 0.02,-137.09 -0.20,-136.02 121.38 80
7 07/12/2021 06:52:14 -0.02,-137.05 -0.83,-140.61 406.16 80
8 07/13/2021 06:34:15 -0.02,-137.03 0.32,-135.63 160.71 80
9 07/14/2021 18:50:27 0.02,-137.01 0.72,-140.19 362.00 80
10 07/15/2021 18:32:28 0.02,-136.98 -0.37,-135.19 204.61 80
